This demonstration page uses our WeatherBlox Daily Observations layout. Learn more.

Hourly Observations for August 19, 2019

Temp ( °F °C ) Dew Point ( °F °C ) Humidity (%) Winds ( mph kmh ) Pressure ( in mb ) Visibility ( mi km ) Precip ( " mm )
12:15 am 00:15 Clear 66 19 66 18.9 99 99 E 8 13 29.91 1013 10 16.09344 0 0
12:35 am 00:35 Clear 66 18.7 66 18.7 100 100 E 7 11 29.91 1013 10 16.09344 0 0
12:55 am 00:55 Clear 65 18.6 65 18.6 100 100 E 7 11 29.91 1013 10 16.09344 0 0
1:15 am 01:15 Clear 65 18.5 65 18.5 100 100 E 7 11 29.91 1013 10 16.09344 0 0
1:35 am 01:35 Clear 65 18.2 65 18.2 100 100 ESE 8 13 29.91 1013 10 16.09344 0 0
1:55 am 01:55 Clear 65 18.2 65 18.2 100 100 E 8 13 29.91 1013 10 16.09344 0 0
2:15 am 02:15 Clear 64 18 64 18 100 100 E 7 11 29.94 1014 10 16.09344 0 0
2:35 am 02:35 Clear 64 18 64 18 100 100 ESE 8 13 29.94 1014 10 16.09344 0 0
2:55 am 02:55 Clear 64 17.8 64 17.8 100 100 E 7 11 29.94 1014 10 16.09344 0 0
3:15 am 03:15 Clear 64 17.7 64 17.7 100 100 E 7 11 29.94 1014 7 11.265408 0 0
3:35 am 03:35 Clear 64 17.7 64 17.7 100 100 ESE 6 9 29.94 1014 7 11.265408 0 0
3:55 am 03:55 Clear 64 17.7 64 17.7 100 100 ESE 5 7 29.94 1014 10 16.09344 0 0
4:15 am 04:15 Clear 64 17.5 64 17.5 100 100 ESE 5 7 29.94 1014 7 11.265408 0 0
4:35 am 04:35 Clear 63 17.2 63 17.2 100 100 E 6 9 29.94 1014 7 11.265408 0 0
4:55 am 04:55 Clear 63 17.2 63 17.2 100 100 ESE 3 6 29.94 1014 7 11.265408 0 0
5:15 am 05:15 Clear 63 17.3 63 17.3 100 100 ESE 6 9 29.94 1014 7 11.265408 0 0
5:35 am 05:35 Clear 63 17.3 63 17.3 100 100 ESE 6 9 29.94 1014 7 11.265408 0 0
5:55 am 05:55 Clear 63 17.1 63 17.1 100 100 ESE 7 11 29.94 1014 7 11.265408 0 0
6:15 am 06:15 Clear 63 17.1 63 17.1 100 100 ESE 9 15 29.94 1014 7 11.265408 0 0
6:35 am 06:35 Clear 64 17.5 64 17.5 100 100 ESE 9 15 29.94 1014 10 16.09344 0 0
6:55 am 06:55 Sunny 64 17.6 63 17.3 98 98 ESE 9 15 29.94 1014 10 16.09344 0 0
7:15 am 07:15 Sunny 64 17.6 63 17.3 98 98 ESE 7 11 29.94 1014 10 16.09344 0 0
7:35 am 07:35 Sunny 64 17.8 64 17.5 98 98 ESE 8 13 29.94 1014 7 11.265408 0 0
7:55 am 07:55 Sunny 65 18.3 64 17.9 98 98 ESE 5 7 29.94 1014 10 16.09344 0 0
8:15 am 08:15 Sunny 66 18.9 65 18.3 96 96 ESE 8 13 29.94 1014 10 16.09344 0 0
8:35 am 08:35 Sunny 67 19.5 66 18.7 95 95 ESE 10 17 29.91 1013 10 16.09344 0 0
8:55 am 08:55 Sunny 68 20.2 67 19.3 95 95 ESE 9 15 29.91 1013 10 16.09344 0 0
9:15 am 09:15 Sunny 70 21 67 19.6 92 92 ESE 14 22 29.91 1013 10 16.09344 0 0
9:35 am 09:35 Sunny 71 21.7 68 20.1 91 91 SE 12 19 29.91 1013 10 16.09344 0 0
9:55 am 09:55 Sunny 73 22.7 69 20.7 89 89 SE 9 15 29.91 1013 10 16.09344 0 0
10:15 am 10:15 Sunny 74 23.6 70 21.3 87 87 ESE 10 17 29.88 1012 10 16.09344 0 0
10:35 am 10:35 Sunny 76 24.5 71 21.8 85 85 SE 10 17 29.88 1012 10 16.09344 0 0
10:55 am 10:55 Sunny 78 25.5 72 22.3 83 83 SSE 10 17 29.88 1012 10 16.09344 0 0
11:15 am 11:15 Mostly Cloudy 79 25.9 73 22.8 83 83 SSE 10 17 29.88 1012 10 16.09344 0 0
11:35 am 11:35 Cloudy 79 26.1 74 23.3 85 85 SE 16 26 29.88 1012 10 16.09344 0 0
11:55 am 11:55 Mostly Cloudy 80 26.8 75 23.7 83 83 SSE 13 20 29.85 1011 10 16.09344 0 0
12:15 pm 12:15 Mostly Cloudy 82 27.6 75 23.8 80 80 SSE 9 15 29.85 1011 10 16.09344 0 0
12:35 pm 12:35 Mostly Cloudy 83 28.3 75 24.1 78 78 SE 12 19 29.85 1011 10 16.09344 0 0
12:55 pm 12:55 Mostly Cloudy 83 28.5 76 24.3 78 78 SSE 12 19 29.83 1010 10 16.09344 0 0
1:15 pm 13:15 Cloudy 84 29.1 76 24.7 77 77 SSE 12 19 29.83 1010 10 16.09344 0 0
1:35 pm 13:35 Mostly Cloudy 85 29.7 77 24.9 75 75 SSE 15 24 29.83 1010 10 16.09344 0 0
1:55 pm 13:55 Partly Cloudy 86 30 76 24.6 73 73 SE 15 24 29.83 1010 10 16.09344 0 0
2:15 pm 14:15 Partly Cloudy 88 31 77 24.9 70 70 SE 15 24 29.8 1009 10 16.09344 0 0
2:35 pm 14:35 Partly Cloudy 88 30.9 77 24.8 70 70 SSE 13 20 29.8 1009 10 16.09344 0 0
2:55 pm 14:55 Partly Cloudy 88 31.1 76 24.7 69 69 SE 13 20 29.77 1008 10 16.09344 0 0
3:15 pm 15:15 Partly Cloudy 88 31 77 24.8 70 70 SE 16 26 29.77 1008 10 16.09344 0 0
3:35 pm 15:35 Sunny 89 31.4 77 24.9 68 68 SSE 14 22 29.77 1008 10 16.09344 0 0
3:50 pm 15:50 Sunny 89 31.4 76 24.5 67 67 SE 16 26 29.77 1008 10 16.09344 0 0
4:15 pm 16:15 Sunny 89 31.7 76 24.5 66 66 SSE 14 22 29.74 1007 10 16.09344 0 0
4:35 pm 16:35 Sunny 89 31.7 77 24.9 67 67 SE 14 22 29.74 1007 10 16.09344 0 0
4:55 pm 16:55 Sunny 90 32.3 77 25.1 66 66 SSE 12 19 29.74 1007 10 16.09344 0 0
5:15 pm 17:15 Sunny 90 32 76 24.6 65 65 SE 14 22 29.74 1007 10 16.09344 0 0
5:35 pm 17:35 Sunny 89 31.9 76 24.4 65 65 SE 14 22 29.74 1007 10 16.09344 0 0
5:55 pm 17:55 Sunny 90 32 76 24.6 65 65 SSE 9 15 29.74 1007 10 16.09344 0 0
6:15 pm 18:15 Sunny 89 31.9 76 24.7 66 66 SSE 9 15 29.74 1007 10 16.09344 0 0
6:35 pm 18:35 Sunny 89 31.6 77 24.9 68 68 SSE 8 13 29.74 1007 10 16.09344 0 0
6:55 pm 18:55 Sunny 89 31.4 77 25 69 69 SSE 6 9 29.74 1007 10 16.09344 0 0
7:15 pm 19:15 Sunny 88 30.9 76 24.7 70 70 SSE 7 11 29.74 1007 10 16.09344 0 0
7:35 pm 19:35 Sunny 86 29.9 77 24.8 74 74 SSE 6 9 29.74 1007 10 16.09344 0 0
7:55 pm 19:55 Sunny 84 29 76 24.7 78 78 Calm 29.77 1008 10 16.09344 0 0
8:15 pm 20:15 Sunny 84 28.7 76 24.3 77 77 SE 3 6 29.77 1008 10 16.09344 0 0
8:35 pm 20:35 Clear 81 27.2 75 24.1 83 83 Calm 29.77 1008 10 16.09344 0 0
8:55 pm 20:55 Clear 79 26.1 75 23.9 88 88 ESE 5 7 29.77 1008 10 16.09344 0 0
9:15 pm 21:15 Clear 80 26.4 75 23.9 86 86 SE 7 11 29.8 1009 10 16.09344 0 0
9:35 pm 21:35 Clear 77 25.1 75 23.7 92 92 Calm 29.83 1010 10 16.09344 0 0
9:55 pm 21:55 Clear 76 24.6 75 23.9 96 96 Calm 29.83 1010 10 16.09344 0 0
10:15 pm 22:15 Clear 76 24.5 75 23.7 95 95 E 5 7 29.83 1010 10 16.09344 0 0
10:35 pm 22:35 Clear 76 24.5 75 23.8 96 96 ESE 7 11 29.83 1010 10 16.09344 0 0
10:55 pm 22:55 Clear 77 25 75 24.1 95 95 ESE 6 9 29.83 1010 10 16.09344 0 0
11:15 pm 23:15 Clear 77 25 75 24 94 94 SE 6 9 29.83 1010 10 16.09344 0 0
11:35 pm 23:35 Clear 77 24.8 75 23.8 94 94 SE 6 9 29.83 1010 10 16.09344 0 0
11:55 pm 23:55 Clear 76 24.5 74 23.6 95 95 SSE 5 7 29.83 1010 10 16.09344 0 0

Powered by AerisWeather